[[{"header":{"parameterUnit":"m.s-1","parameterCategory":1,"la1":30.2991,"la2":30.254,"lo1":-89.0895,"lo2":-89.0444,"dy":0.0017,"dx":0.0017,"nx":28,"ny":28,"refTime":"2025-11-06T03:00:00:Z","depth":0,"parameterNumber":2,"parameterNumberName":"U-component_of_WINDS"},"data":[0,0,0,0,0,0,0,0,0,0,0,0,0,0,0,0,0,0,0,0,0,0,0,0,0,0,0,0,0,0,0,0,0,0,0,0,0,0,0,0,0,0,0,0,0,0,0,0,0,0,0,0,0,0,0,0,0,0,-2.3379,-2.3379,0,-2.3381,-2.3382,-2.3382,-2.3348,-2.3347,-2.3346,-2.3345,-2.3349,-2.335,-2.3351,0,0,0,0,0,0,0,0,0,0,0,0,0,-2.3352,-2.3352,-2.3379,-2.3379,-2.3379,-2.3381,-2.3382,-2.3382,-2.3348,-2.3347,-2.3346,-2.3345,-2.3349,-2.335,-2.3351,0,0,0,0,0,0,0,0,0,0,0,0,0,-2.336,-2.3353,-2.3379,-2.3363,-2.3361,-2.3381,-2.3382,-2.3382,-2.3348,-2.3347,-2.3345,-2.3344,-2.3349,-2.335,-2.3351,-2.3388,0,0,-2.3356,-2.3356,0,0,0,0,0,0,0,0,-2.3359,-2.3361,-2.3365,-2.3364,-2.3362,-2.3363,-2.3373,-2.3384,-2.3349,-2.3353,-2.3345,-2.3343,-2.3355,-2.3356,-2.3359,-2.3388,-2.3388,-2.3356,-2.3357,-2.3357,-2.3358,0,0,0,0,0,0,0,-2.3359,-2.3361,-2.338,-2.3365,-2.3364,-2.3357,-2.3357,-2.3375,-2.3362,-2.3353,-2.335,-2.3351,-2.3354,-2.3358,-2.3359,-2.3388,-2.3356,-2.3357,-2.3358,-2.3359,-2.3453,-2.3454,0,0,0,0,0,0,-2.336,-2.336,-2.338,-2.338,-2.3357,-2.3359,-2.3358,-2.3364,-2.3362,-2.336,-2.3352,-2.3349,-2.3356,-2.3358,-2.3359,-2.3405,-2.3357,-2.3359,-2.336,-2.3451,-2.3453,-2.3455,0,0,0,0,0,0,-2.336,-2.3362,-2.338,-2.337,-2.3371,-2.3361,-2.3368,-2.3365,-2.3369,-2.3361,-2.3359,-2.3358,-2.3355,-2.3357,-2.3382,-2.3405,-2.3359,-2.3361,-2.3449,-2.3452,-2.3454,-2.3495,0,0,0,0,0,0,-2.3359,-2.3362,-2.3374,-2.337,-2.3372,-2.3401,-2.3369,-2.3366,-2.3371,-2.3368,-2.3366,-2.3365,-2.3354,-2.338,-2.3384,-2.3406,-2.3362,-2.3447,-2.345,-2.3453,-2.3491,-2.3498,-2.3504,0,0,0,0,0,-2.3358,-2.3385,-2.3375,-2.3378,-2.3387,-2.3403,-2.3404,-2.3391,-2.3373,-2.3387,-2.3383,-2.3365,-2.3402,-2.3383,-2.3386,-2.3409,-2.3446,-2.3449,-2.3453,-2.3489,-2.3497,-2.3504,0,0,0,0,0,0,-2.3391,-2.3384,-2.3373,-2.3399,-2.3402,-2.3397,-2.3413,-2.3399,-2.3407,-2.3404,-2.3388,-2.3388,-2.3416,-2.3415,-2.3395,-2.3447,-2.3421,-2.3425,-2.3447,-2.3455,-2.3461,-2.3461,-2.3363,0,0,0,0,0,-2.3402,-2.3414,-2.3407,-2.3431,-2.3434,-2.3423,-2.3429,-2.342,-2.3422,-2.3423,-2.342,-2.3424,-2.3437,-2.3446,-2.3457,-2.3491,-2.3493,-2.351,-2.3516,-2.3521,-2.3526,-2.3548,-2.3557,-2.3467,-2.3467,-2.3467,0,0,-2.3424,-2.3421,-2.343,-2.3438,-2.3439,-2.3454,-2.3424,-2.344,-2.3452,-2.3425,-2.3449,-2.3448,-2.3452,-2.3483,-2.3497,-2.3483,-2.3551,-2.3526,-2.353,-2.3532,-2.3553,-2.3561,-2.3569,-2.3469,-2.3469,-2.3468,0,0,-2.3471,-2.3469,-2.3491,-2.3493,-2.3495,-2.3489,-2.3495,-2.3493,-2.3491,-2.3515,-2.3497,-2.3512,-2.3533,-2.3537,-2.3543,-2.3598,-2.3583,-2.3602,-2.3635,-2.3658,-2.3665,-2.3671,-2.3694,-2.3701,-2.3606,-2.3606,-2.3606,0,-2.3498,-2.3518,-2.3504,-2.3522,-2.3528,-2.3506,-2.353,-2.3533,-2.3539,-2.3545,-2.3529,-2.3559,-2.3559,-2.3593,-2.3607,-2.3611,-2.362,-2.3601,-2.3665,-2.3671,-2.3676,-2.3698,-2.3706,-2.3608,-2.3608,-2.3608,-2.3608,0,-2.3553,-2.3568,-2.3585,-2.3593,-2.3601,-2.3621,-2.3613,-2.3623,-2.3614,-2.361,-2.3637,-2.3638,-2.3651,-2.3658,-2.3648,-2.3692,-2.3684,-2.3667,-2.364,-2.3688,-2.3708,-2.3716,-2.3612,-2.3611,-2.361,-2.361,0,0,-2.3619,-2.3621,-2.3628,-2.3633,-2.3636,-2.3648,-2.367,-2.3682,-2.3693,-2.3699,-2.3719,-2.374,-2.3726,-2.3732,-2.3723,-2.3743,-2.3791,-2.3724,-2.3724,-2.3738,-2.3843,-2.3857,-2.3866,-2.3781,-2.3783,-2.3784,-2.3844,0,-2.3667,-2.3703,-2.3693,-2.373,-2.3746,-2.3727,-2.3747,-2.3752,-2.3751,-2.3766,-2.3764,-2.378,-2.3759,-2.3763,-2.3781,-2.3781,-2.3812,-2.3776,-2.3802,-2.3803,-2.3803,-2.3876,-2.389,-2.3946,-2.3851,-2.3852,-2.3853,0,-2.3726,-2.3737,-2.3775,-2.378,-2.3786,-2.3804,-2.3817,-2.3831,-2.3838,-2.3836,-2.3845,-2.3834,-2.3859,-2.3832,-2.3868,-2.3845,-2.3855,-2.3857,-2.3859,-2.3862,-2.3832,-2.3883,-2.3963,-2.3973,-2.3865,-2.3864,-2.3863,0,-2.3774,-2.3797,-2.3824,-2.3829,-2.3834,-2.3848,-2.3851,-2.3857,-2.3867,-2.3879,-2.3886,-2.3901,-2.391,-2.3923,-2.3918,-2.3898,-2.3956,-2.3928,-2.3958,-2.3958,-2.3971,-2.397,-2.4056,-2.3975,-2.3975,-2.3975,-2.3975,0,-2.3829,-2.3854,-2.3846,-2.3863,-2.3892,-2.3882,-2.3912,-2.3913,-2.392,-2.3939,-2.3923,-2.3942,-2.3933,-2.3952,-2.3948,-2.3981,-2.3984,-2.3985,-2.3984,-2.3987,-2.3987,-2.3994,-2.3991,-2.3977,-2.3976,-2.3976,-2.3976,0,-2.3887,-2.3882,-2.3911,-2.3915,-2.3916,-2.3938,-2.3942,-2.396,-2.3958,-2.3983,-2.3988,-2.3987,-2.4009,-2.4005,-2.4028,-2.4026,-2.4068,-2.4061,-2.4065,-2.4064,-2.4095,-2.4093,-2.4189,-2.4203,-2.4112,-2.4113,-2.4113,0,-2.3922,-2.3942,-2.3949,-2.396,-2.3965,-2.3983,-2.3994,-2.3986,-2.3998,-2.4011,-2.4028,-2.4049,-2.4065,-2.4101,-2.4104,-2.4123,-2.4118,-2.4151,-2.4121,-2.4125,-2.4122,-2.4121,-2.4125,-2.4157,-2.4158,-2.4158,-2.4159,0,-2.3988,-2.3986,-2.4001,-2.4017,-2.4031,-2.4043,-2.4054,-2.4065,-2.4059,-2.4074,-2.4097,-2.4109,-2.4135,-2.4157,-2.4177,-2.4182,-2.4171,-2.4169,-2.4177,-2.4181,-2.4184,-2.4186,-2.4083,-2.4166,-2.4166,-2.4165,-2.4165,-2.4165,-2.4037,-2.4055,-2.4064,-2.4083,-2.4091,-2.4103,-2.4121,-2.4123,-2.4141,-2.4161,-2.4156,-2.4183,-2.4195,-2.422,-2.4228,-2.425,-2.4238,-2.425,-2.4253,-2.4256,-2.4261,-2.418,-2.4253,-2.4253,-2.4253,-2.4253,-2.4253,0,-2.4104,-2.4109,-2.4127,-2.4144,-2.4161,-2.4149,-2.4162,-2.4177,-2.42,-2.4212,-2.4229,-2.4257,-2.428,-2.4285,-2.4308,-2.4325,-2.4321,-2.4332,-2.4331,-2.4333,-2.4269,-2.4261,-2.4335,-2.4335,-2.4335,-2.4335,-2.4335,-2.4335,-2.414,-2.4171,-2.4171,-2.4207,-2.4213,-2.4239,-2.4248,-2.426,-2.427,-2.4302,-2.4321,-2.4325,-2.4336,-2.436,-2.4381,-2.4382,-2.4393,-2.4406,-2.4405,-2.4345,-2.4337,-2.4329,-2.4322,-2.4407,-2.4407,-2.4468,-2.4469,-2.4469]},{"header":{"parameterUnit":"m.s-1","parameterCategory":1,"la1":30.2991,"la2":30.254,"lo1":-89.0895,"lo2":-89.0444,"dy":0.0017,"dx":0.0017,"nx":28,"ny":28,"refTime":"2025-11-06T03:00:00:Z","depth":0,"parameterNumber":3,"parameterNumberName":"V-component_of_WINDS"},"data":[0,0,0,0,0,0,0,0,0,0,0,0,0,0,0,0,0,0,0,0,0,0,0,0,0,0,0,0,0,0,0,0,0,0,0,0,0,0,0,0,0,0,0,0,0,0,0,0,0,0,0,0,0,0,0,0,0,0,1.5053,1.5053,0,1.5023,1.5023,1.5023,1.5074,1.5076,1.5077,1.5079,1.5041,1.5038,1.5035,0,0,0,0,0,0,0,0,0,0,0,0,0,1.5148,1.5146,1.5053,1.5053,1.5052,1.5023,1.5023,1.5022,1.5073,1.5076,1.5078,1.508,1.5041,1.5038,1.5035,0,0,0,0,0,0,0,0,0,0,0,0,0,1.5111,1.5145,1.5053,1.5075,1.5076,1.5023,1.5023,1.5022,1.5073,1.5076,1.5078,1.5081,1.5042,1.5039,1.5035,1.4957,0,0,1.5022,1.5021,0,0,0,0,0,0,0,0,1.5113,1.5107,1.5072,1.5073,1.5075,1.5055,1.5042,1.5,1.5072,1.5074,1.5079,1.5082,1.5043,1.5039,1.5027,1.4955,1.4954,1.5022,1.502,1.5018,1.5017,0,0,0,0,0,0,0,1.5115,1.5109,1.5041,1.5071,1.5073,1.5083,1.5081,1.5034,1.5044,1.5074,1.5078,1.5074,1.5044,1.5031,1.5027,1.4953,1.5022,1.5019,1.5016,1.5015,1.4815,1.4812,0,0,0,0,0,0,1.5116,1.5111,1.5042,1.504,1.5101,1.508,1.5077,1.5059,1.5044,1.5045,1.5072,1.5076,1.5037,1.5031,1.5026,1.4933,1.5018,1.5014,1.5012,1.4818,1.4815,1.4811,0,0,0,0,0,0,1.5118,1.511,1.5043,1.5077,1.5069,1.5075,1.5054,1.5057,1.5044,1.5043,1.5044,1.5057,1.5038,1.5031,1.4974,1.4932,1.5012,1.5009,1.4821,1.4817,1.4813,1.4748,0,0,0,0,0,0,1.5121,1.511,1.5082,1.5076,1.5067,1.4994,1.5052,1.5054,1.5038,1.5044,1.5029,1.5029,1.504,1.498,1.497,1.4928,1.5006,1.4825,1.4819,1.4814,1.4753,1.4742,1.4731,0,0,0,0,0,1.5124,1.5063,1.5081,1.5072,1.5033,1.4992,1.4987,1.5002,1.5034,1.5005,1.5004,1.503,1.4939,1.4974,1.4963,1.4919,1.4828,1.4821,1.4815,1.4758,1.4744,1.4732,0,0,0,0,0,0,1.5062,1.5063,1.5082,1.5018,1.5005,1.5001,1.4964,1.4986,1.4961,1.4968,1.4986,1.4982,1.4921,1.4915,1.4953,1.4843,1.4888,1.488,1.4849,1.4835,1.4825,1.4826,1.5002,0,0,0,0,0,1.5042,1.5011,1.5012,1.4956,1.4948,1.4957,1.494,1.4954,1.4939,1.4933,1.4928,1.4912,1.4879,1.4857,1.4828,1.4754,1.475,1.4718,1.4707,1.4698,1.469,1.4649,1.4634,1.479,1.479,1.479,0,0,1.4998,1.4994,1.4973,1.4943,1.4934,1.49,1.4952,1.4913,1.4887,1.4926,1.4873,1.4869,1.4851,1.4785,1.4756,1.4778,1.4646,1.469,1.4683,1.4679,1.464,1.4626,1.4612,1.4786,1.4786,1.4787,0,0,1.49,1.4895,1.4847,1.4838,1.4825,1.4832,1.4821,1.4813,1.4813,1.476,1.4789,1.4757,1.4701,1.4687,1.4673,1.4571,1.4593,1.4561,1.4502,1.4462,1.4449,1.4439,1.44,1.4387,1.4552,1.4552,1.4552,0,1.4846,1.4797,1.4819,1.4779,1.4764,1.4801,1.4751,1.4741,1.4717,1.4705,1.4732,1.4663,1.4654,1.4584,1.456,1.4547,1.4533,1.4561,1.445,1.4439,1.4429,1.4393,1.4379,1.4548,1.4549,1.4549,1.455,0,1.4731,1.4697,1.4659,1.4639,1.462,1.4575,1.4588,1.4565,1.4581,1.4584,1.4529,1.452,1.4488,1.4473,1.4487,1.4405,1.442,1.4448,1.4493,1.441,1.4376,1.4363,1.4543,1.4544,1.4545,1.4546,0,0,1.4591,1.4585,1.4571,1.4562,1.4551,1.4524,1.448,1.4452,1.4432,1.4415,1.4377,1.4329,1.4356,1.4339,1.4352,1.4317,1.4235,1.4349,1.4349,1.4326,1.4142,1.412,1.4104,1.425,1.4248,1.4246,1.4143,0,1.4493,1.442,1.4438,1.4364,1.4332,1.4368,1.4329,1.4317,1.4319,1.429,1.4292,1.4257,1.4296,1.4286,1.4253,1.4252,1.4198,1.426,1.4212,1.421,1.4213,1.4086,1.4062,1.3966,1.413,1.4128,1.4127,0,1.4368,1.4349,1.4272,1.4267,1.4254,1.4219,1.4195,1.4168,1.4154,1.4158,1.4141,1.416,1.4114,1.4162,1.4098,1.414,1.4122,1.4118,1.4115,1.4109,1.4162,1.4075,1.3935,1.392,1.4106,1.4108,1.4109,0,1.4271,1.4226,1.4175,1.4166,1.4159,1.4134,1.4129,1.4119,1.4101,1.4079,1.4067,1.4039,1.4023,1.4001,1.4011,1.4045,1.3944,1.3993,1.3943,1.3943,1.3918,1.3919,1.3772,1.391,1.391,1.3911,1.3911,0,1.4158,1.4109,1.4132,1.4099,1.4045,1.4067,1.4012,1.4011,1.4002,1.3969,1.3998,1.3965,1.3982,1.395,1.3958,1.3903,1.3896,1.3896,1.3898,1.3892,1.3891,1.3878,1.3884,1.3907,1.3908,1.3909,1.3909,0,1.404,1.4053,1.3999,1.3998,1.3997,1.3957,1.3954,1.3923,1.3929,1.3886,1.3877,1.3884,1.3848,1.3857,1.3817,1.3823,1.3752,1.3764,1.3757,1.3759,1.3708,1.3712,1.3545,1.3524,1.3678,1.3677,1.3675,0,1.3966,1.3929,1.3925,1.3906,1.3901,1.387,1.3852,1.3872,1.3852,1.3834,1.3805,1.3772,1.3747,1.3688,1.3687,1.3657,1.3666,1.361,1.3661,1.3656,1.3663,1.3664,1.3659,1.3599,1.3597,1.3596,1.3594,0,1.3832,1.3841,1.3816,1.3793,1.3772,1.3755,1.3739,1.3722,1.374,1.3716,1.3681,1.3662,1.3623,1.3589,1.3561,1.3554,1.3575,1.3579,1.3565,1.3557,1.3554,1.3553,1.3727,1.3582,1.3583,1.3584,1.3585,1.3585,1.3732,1.3701,1.3694,1.3665,1.3657,1.3642,1.3613,1.3615,1.3588,1.3559,1.3572,1.3531,1.3518,1.3483,1.3472,1.3439,1.346,1.3441,1.3436,1.343,1.3423,1.3562,1.3434,1.3435,1.3435,1.3435,1.3436,0,1.3598,1.3596,1.3569,1.3549,1.3525,1.3553,1.3537,1.3515,1.348,1.3467,1.3442,1.3401,1.3369,1.3367,1.3336,1.331,1.3319,1.3301,1.3302,1.3299,1.3407,1.3421,1.3294,1.3294,1.3294,1.3294,1.3294,1.3294,1.3526,1.3475,1.3483,1.3427,1.3425,1.3387,1.3376,1.3362,1.3352,1.3306,1.328,1.3281,1.3271,1.324,1.3211,1.3211,1.3197,1.3174,1.3178,1.3278,1.3292,1.3305,1.3318,1.3172,1.3171,1.3073,1.3072,1.3071]}]]